IRIDIUM 45

Last updated on Wed Nov 29 2017 00:19:02 GMT+0000 (Coordinated Universal Time)

1 25104U 97082A 17332.15743805 .00000170 00000-0 53704-4 0 9998 2 25104 86.3992 218.6635 0002703 96.1799 263.9705 14.34221329 43870
UTC large
Height (km)
Speed (km/s)
/
Latitude / Longitude
Inclination (degrees)
Orbital Period (minutes)
Azimuth
Elevation
Range (km)
Doppler Factor

Next 0 passes for location: London (51.5072 / 0.1276)

Sorry there are no passes over London.